Location: Godiavel Galaoual
(15.2485°N, 12.6604°W)
Time: 13:19:02
(UTC+00:00)

Cosmos 540 Rocket - Pass Details

Date: 27 February 2020
Orbit: 739 x 754 km, 74.1° (Epoch: 29 March)

Event Time Altitude Azimuth Distance (km) Brightness Sun altitude
Rises 19:16:53 0° 175° (S) 3,162 6.7 -5.4°
Reaches altitude 10° 19:19:23 10° 166° (SSE) 2,241 5.9 -6.0°
Maximum altitude 19:24:00 36° 101° (E) 1,167 4.0 -7.1°
Drops below altitude 10° 19:28:38 10° 35° (NE) 2,251 5.5 -8.2°
Sets 19:31:08 0° 27° (NNE) 3,177 6.4 -8.8°
